Location: Lawrence
(38.9720°N, 95.2350°W)
Time: 21:03:03
(UTC-05:00)

JAS-1B - Visible Passes

Search period start: 23 March 2017 00:00
Search period end: 02 April 2017 00:00
Orbit: 912 x 1743 km, 99.0° (Epoch: 22 March)

Date Brightness Start Highest point End Pass type
(mag) Time Alt. Az. Time Alt. Az. Time Alt. Az.
23 Mar 10.3 01:31:33 10° ENE 01:34:49 12° NE 01:38:04 10° NNE visible
23 Mar 8.8 03:18:41 32° ESE 03:23:02 50° ENE 03:32:20 10° N visible
23 Mar 8.4 05:10:55 39° SW 05:13:24 44° W 05:22:43 10° NNW visible
24 Mar 10.2 01:48:00 10° E 01:53:19 16° NE 01:58:33 10° NNE visible
24 Mar 8.4 03:37:51 39° SE 03:41:56 64° ENE 03:51:33 10° N visible
24 Mar 8.7 05:30:05 30° WSW 05:32:42 34° W 05:41:23 10° NNW visible
25 Mar 9.9 02:05:13 10° E 02:11:53 21° NE 02:18:27 10° NNE visible
25 Mar 8.2 03:57:02 44° SSE 04:00:54 80° ENE 04:10:43 10° NNW visible
25 Mar 8.9 05:49:16 23° WSW 05:52:03 26° W 05:59:49 10° NW visible
26 Mar 9.6 02:23:58 13° ESE 02:30:32 27° ENE 02:38:05 10° N visible
26 Mar 8.0 04:16:13 46° S 04:19:57 83° WSW 04:29:48 10° NNW visible
26 Mar 9.2 06:08:27 16° WSW 06:11:29 19° W 06:17:52 10° NW visible
27 Mar 9.3 02:43:09 18° ESE 02:49:16 35° ENE 02:57:34 10° N visible
27 Mar 8.1 04:35:24 43° SSW 04:39:04 66° W 04:48:47 10° NNW visible
27 Mar 9.5 06:27:39 11° WSW 06:31:00 13° W 06:35:04 10° WNW visible
28 Mar 9.0 03:02:21 23° ESE 03:08:04 44° ENE 03:16:56 10° N visible
28 Mar 8.3 04:54:36 37° SSW 04:58:14 52° W 05:07:40 10° NNW visible
29 Mar 10.3 01:34:23 10° ENE 01:38:27 13° NE 01:42:26 10° NNE visible
29 Mar 8.6 03:21:34 29° SE 03:26:57 56° ENE 03:36:12 10° N visible
29 Mar 8.5 05:13:48 31° SW 05:17:28 40° W 05:26:25 10° NNW visible
30 Mar 10.1 01:51:10 10° E 01:57:00 18° NE 02:02:38 10° NNE visible
30 Mar 8.3 03:40:46 33° SE 03:45:54 70° ENE 03:55:24 10° N visible
30 Mar 8.8 05:33:01 24° SW 05:36:46 30° W 05:44:58 10° NW visible
31 Mar 9.8 02:08:33 10° ESE 02:15:37 23° ENE 02:22:24 10° N visible
31 Mar 8.1 04:00:00 36° SSE 04:04:54 87° ENE 04:14:30 10° NNW visible
31 Mar 9.1 05:52:15 18° WSW 05:56:07 23° W 06:03:16 10° NW visible
01 Apr 9.5 02:26:59 12° ESE 02:34:20 30° ENE 02:41:58 10° N visible
01 Apr 8.0 04:19:14 37° S 04:23:58 76° WSW 04:33:33 10° NNW visible
01 Apr 9.3 06:11:29 13° WSW 06:15:33 16° W 06:21:01 10° NW visible
